Regional Weather Roundup
Issued by NWS Huntsville, AL

Home | Current Version | Previous Version | Text Only | Print | Product List | Glossary On
Versions: 1 2 3 4 5 6 7 8 9 10 11 12 13 14 15 16 17 18 19 20 21 22 23 24 25 26 27 28 29 30 31 32 33 34 35 36 37 38 39 40 41 42 43 44 45 46 47 48 49 50
000
ASUS44 KHUN 200210
RWRHUN

WEATHER ROUNDUP FOR THE TENNESSEE VALLEY
NATIONAL WEATHER SERVICE HUNTSVILLE AL
900 PM CDT THU OCT 19 2017

ALZ001>004-200300-
NORTHWEST ALABAMA

CITY           SKY/WX    TMP DP  RH WIND       PRES   REMARKS
COURTLAND HCN    N/A     54 N/A N/A CALM        N/A
RUSSELLVILLE     N/A     50 N/A N/A MISG        N/A
SHOALS AIRPORT CLEAR     53  49  86 CALM      30.24F
SHOALS TVA RES   N/A     55 N/A N/A MISG        N/A
$$

ALZ005>007-016-200300-
NORTH CENTRAL ALABAMA

CITY           SKY/WX    TMP DP  RH WIND       PRES   REMARKS
CULLMAN AG STN   N/A     52 N/A N/A CALM        N/A
DECATUR AP     CLEAR     52  50  93 CALM      30.25S
HUNTSVILLE AP  CLEAR     56  52  86 SE3       30.24S
MERIDIANVILLE  CLEAR     52  48  87 CALM      30.26S
REDSTONE ARSN  CLEAR    N/A N/A N/A CALM      30.24S
VINEMONT AP    FAIR      50  49  95 NE3       30.27S
$$

ALZ008>010-200300-
NORTHEAST ALABAMA

CITY           SKY/WX    TMP DP  RH WIND       PRES   REMARKS
ALBERTVILLE    CLEAR     55  55 100 E3        30.25S
FORT PAYNE     CLEAR     50  46  87 CALM      30.26S
SCOTTSBORO AP  CLEAR     52  52 100 CALM      30.26S
SCOTTSBORO HCN   N/A     50 N/A N/A MISG        N/A
VALLEY HEAD      N/A     50 N/A N/A MISG        N/A
$$

TNZ076-096-097-200300-
SOUTHEASTERN MIDDLE TENNESSEE

CITY           SKY/WX    TMP DP  RH WIND       PRES   REMARKS
TULLAHOMA      CLEAR     48  45  87 CALM      30.27S
WINCHESTER     CLEAR     52  48  87 CALM        N/A
$$

...SURROUNDING SITES...

CITY           SKY/WX    TMP DP  RH WIND       PRES   REMARKS
ATLANTA        PTCLDY    62  46  55 CALM      30.25S
ANNISTON       CLEAR     56  53  90 CALM      30.25R
BIRMINGHAM     CLEAR     58  51  78 CALM      30.26S
CHATTANOOGA    CLEAR     55  49  80 CALM      30.26S
CORINTH        FAIR      55  54  94 CALM      30.22S
DALTON         CLEAR     50  50 100 CALM      30.27F
GADSDEN        CLEAR     51  50  96 CALM      30.26R
GOLDEN TRNGL   CLEAR     61  54  77 CALM      30.21F
HALEYVILLE     FAIR      53  53 100 CALM      30.26S
JACKSON TN     CLEAR     54  53  97 CALM      30.21F
MEMPHIS        MOCLDY    61  52  72 S6        30.20S
NASHVILLE      CLEAR     58  49  72 S5        30.24S
OXFORD MS      FAIR      54  52  94 CALM      30.23S
ROME           CLEAR     53  52  96 CALM      30.25S
SAVANNAH       CLEAR     52  52 100 CALM      30.22S
SELMER         CLEAR     54  50  87 SE3       30.21S
TUPELO         CLEAR     57  51  80 CALM      30.21S
TUSCALOOSA     CLEAR     60  58  92 CALM      30.22S
$$

...GULF COAST WEATHER...

CITY           SKY/WX    TMP DP  RH WIND       PRES   REMARKS
GULFPORT       PTCLDY    69  66  90 CALM      30.16R
PASCAGOULA     PTCLDY    64  61  90 NE3       30.17R
MOBILE         CLEAR     68  61  78 NE7       30.19R
GULF SHORES    CLEAR     68  60  76 NE5       30.17R
PENSACOLA      PTCLDY    68  59  73 N5        30.16R
DESTIN         CLEAR     76  60  57 NE5       30.16S
PANAMA CITY    CLEAR     73  59  62 NE3       30.16R
APPALACHICOLA  MOCLDY    71  65  81 NE5       30.15R
$$




USA.gov is the U.S. government's official web portal to all federal, state and local government web resources and services.